Weather History for Blue Canyon, CA

Change the Weather History Date:

Tuesday, December 11, 2012

  Actual Average Record
Temperature  
Mean Temperature 40 °F -  
Max Temperature 51 °F 45 °F 67 °F (1958)
Min Temperature 30 °F 32 °F 13 °F (1972)
Degree Days  
Heating Degree Days 24    
Moisture  
Dew Point 26 °F    
Average Humidity 63    
Maximum Humidity 100    
Minimum Humidity 22    
Precipitation  
Precipitation 0.11 in - - ()
Sea Level Pressure  
Sea Level Pressure 29.86 in    
Wind  
Wind Speed 8 mph (South)    
Max Wind Speed 24 mph    
Max Gust Speed 32 mph    
Visibility 7 miles    
Events Fog , Snow    
Averages and records for this station are not official NWS values.
T = Trace of Precipitation, MM = Missing Value Source: NWS Daily Summary

Daily Weather History Graph

Daily Weather History Graph

Search for Another Location

Airport:

Trip Planner

Search our weather history database for the weather conditions in past years. The results will help you decide how hot, cold, wet, or windy it might be!

Date:

Astronomy

Dec. 11, 2012 Rise Set
Actual Time 7:12 AM PST 4:39 PM PST
Civil Twilight 6:42 AM PST 5:09 PM PST
Nautical Twilight 6:09 AM PST 5:43 PM PST
Astronomical Twilight 5:36 AM PST 6:16 PM PST
Moon 5:14 AM PST (12/11) 3:23 PM PST (12/11)
Length of Visible Light 10h 27m
Length of Day
9h 27m
Waning Crescent, 4% of the Moon is Illuminated
Dec 11
Waning Crescent
Dec 13
New
Dec 19
First Quarter
Dec 28
Full
Jan 4
Last Quarter

Hourly Weather History & Observations

Time (PST) Temp. Windchill Dew Point Humidity Pressure Visibility Wind Dir Wind Speed Gust Speed Precip Events Conditions
12:52 AM 51.1 °F - 12.9 °F 22% 30.02 in 10.0 mi NE 4.6 mph - N/A   Clear
1:52 AM 50.0 °F - 12.0 °F 22% 30.00 in 10.0 mi Calm Calm - N/A   Clear
2:52 AM 50.0 °F - 12.0 °F 22% 29.99 in 10.0 mi NE 3.5 mph - N/A   Clear
3:52 AM 48.9 °F - 12.9 °F 24% 30.01 in 10.0 mi NW 3.5 mph - N/A   Clear
4:52 AM 50.0 °F - 12.9 °F 23% 29.98 in 10.0 mi Calm Calm - N/A   Clear
5:52 AM 48.0 °F - 14.0 °F 26% 29.99 in 10.0 mi Calm Calm - N/A   Clear
6:52 AM 46.0 °F 43.9 °F 15.1 °F 29% 30.01 in 10.0 mi South 4.6 mph - N/A   Clear
7:52 AM 45.0 °F 43.5 °F 17.1 °F 33% 30.00 in 10.0 mi ESE 3.5 mph - N/A   Clear
8:52 AM 48.0 °F - 18.0 °F 30% 29.98 in 10.0 mi SSE 9.2 mph - N/A   Clear
9:52 AM 48.0 °F - 19.9 °F 33% 29.98 in 10.0 mi South 9.2 mph - N/A   Clear
10:52 AM 48.0 °F - 25.0 °F 41% 29.95 in 10.0 mi South 11.5 mph - N/A   Clear
11:52 AM 48.9 °F - 28.9 °F 46% 29.91 in 10.0 mi South 11.5 mph 19.6 mph N/A   Clear
12:52 PM 48.9 °F - 30.0 °F 48% 29.87 in 10.0 mi South 12.7 mph 20.7 mph N/A   Clear
1:52 PM 46.9 °F - 30.9 °F 54% 29.85 in 10.0 mi South 11.5 mph 19.6 mph N/A   Clear
2:52 PM 45.0 °F 39.3 °F 32.0 °F 60% 29.84 in 10.0 mi South 11.5 mph - N/A   Clear
3:52 PM 43.0 °F 36.4 °F 30.9 °F 62% 29.81 in 10.0 mi South 12.7 mph - N/A   Clear
4:52 PM 41.0 °F 35.2 °F 30.0 °F 65% 29.79 in 10.0 mi South 9.2 mph 26.5 mph N/A   Clear
5:52 PM 39.9 °F 32.9 °F 33.1 °F 77% 29.80 in 10.0 mi South 11.5 mph 20.7 mph N/A   Clear
6:52 PM 39.9 °F 30.8 °F 30.9 °F 70% 29.77 in 10.0 mi South 18.4 mph 26.5 mph N/A   Partly Cloudy
7:52 PM 39.9 °F 32.5 °F 28.0 °F 63% 29.74 in 10.0 mi South 12.7 mph 19.6 mph N/A   Mostly Cloudy
8:52 PM 39.0 °F 29.9 °F 30.0 °F 70% 29.73 in 10.0 mi South 17.3 mph 21.9 mph N/A   Overcast
9:36 PM 37.4 °F 28.2 °F 32.0 °F 81% 29.79 in 10.0 mi South 16.1 mph 27.6 mph 0.00 in Snow Light Snow
9:40 PM 37.4 °F 27.5 °F 33.8 °F 87% 29.79 in 9.0 mi South 18.4 mph 32.2 mph 0.00 in Snow Light Snow
9:52 PM 36.0 °F 26.3 °F 34.0 °F 93% 29.73 in 7.0 mi SSW 16.1 mph 25.3 mph 0.00 in Snow Light Snow
9:59 PM 35.6 °F 26.6 °F 33.8 °F 93% 29.80 in 6.0 mi South 13.8 mph 24.2 mph 0.00 in   Overcast
10:24 PM 35.6 °F 24.5 °F 33.8 °F 93% 29.78 in 1.5 mi South 20.7 mph 29.9 mph 0.00 in   Overcast
10:29 PM 35.6 °F 27.1 °F 33.8 °F 93% 29.79 in 0.8 mi South 12.7 mph 29.9 mph 0.00 in Snow Light Snow
10:35 PM 33.8 °F 23.9 °F 33.8 °F 100% 29.79 in 1.5 mi SSW 15.0 mph 28.8 mph 0.00 in Snow Light Snow
10:40 PM 33.8 °F 22.8 °F 32.0 °F 93% 29.79 in 1.8 mi South 18.4 mph 27.6 mph 0.00 in Snow Light Snow
10:43 PM 33.8 °F 21.3 °F 30.2 °F 87% 29.80 in 1.2 mi South 24.2 mph 31.1 mph 0.00 in Snow Light Snow
10:52 PM 32.0 °F 22.1 °F 30.9 °F 96% 29.74 in 0.5 mi SSW 13.8 mph 31.1 mph 0.00 in Fog , Snow Snow
11:09 PM 32.0 °F 21.6 °F 32.0 °F 100% 29.80 in 0.2 mi South 15.0 mph 20.7 mph 0.04 in Fog , Snow Snow
11:44 PM 30.2 °F 21.3 °F 30.2 °F 100% 29.79 in 0.5 mi South 10.4 mph - 0.10 in Fog , Snow Snow
11:52 PM 30.9 °F 21.7 °F 30.9 °F 100% 29.74 in 0.5 mi South 11.5 mph 18.4 mph 0.11 in Fog , Snow Light Snow